ATLAS 5 CENTAUR R/B - Orbit

View from above orbital plane
View from above orbital plane
View from above satellite
View from above satellite

Ground track
Ground track

The orbit data is extracted from the following two-line orbital elements,

1 30778U 07006G   13168.49065569  .00009580  00000-0  29970-3 0  7025
2 30778 035.6907 305.9172 0019026 124.4384 309.1835 15.32273595348655
Epoch (UTC): 17 June 2013 11:46:32
Eccentricity: 0.0019026
inclination: 35.6907°
perigee height: 456 km
apogee height: 482 km
right ascension of ascending node: 305.9172°
argument of perigee: 124.4384°
revolutions per day: 15.32273595
mean anomaly at epoch: 309.1835°
orbit number at epoch: 34865

The dashed part of the orbit path shows where the satellite is in the earth's shadow,  

Developed and maintained by Chris Peat, Heavens-Above GmbH. Please read the updated FAQ before sending e-mail. Imprint. DLR